Time,TemperatureF,DewpointF,PressureIn,WindDirection,WindDirectionDegrees,WindSpeedMPH,WindSpeedGustMPH,Humidity,HourlyPrecipIn,Conditions,Clouds,dailyrainin,SoftwareType,DateUTC
2013-09-30 00:00:00,50.3,46.9,29.48,SW,221,6.0,17.0,88,0.01,,---,0.00,VWS V14.01,2013-09-30 07:00:00,
2013-09-30 00:01:00,50.3,46.9,29.48,SW,226,1.0,6.0,88,0.00,,---,0.00,VWS V14.01,2013-09-30 07:01:00,
2013-09-30 00:06:00,50.1,46.7,29.48,SSW,207,3.0,7.0,88,0.00,,---,0.00,VWS V14.01,2013-09-30 07:06:00,
2013-09-30 00:11:00,50.1,47.0,29.48,SSW,207,3.0,7.0,89,0.00,,---,0.00,VWS V14.01,2013-09-30 07:11:00,
2013-09-30 00:16:00,50.0,46.6,29.48,SSW,201,3.0,9.0,88,0.00,,---,0.00,VWS V14.01,2013-09-30 07:16:00,
2013-09-30 00:21:00,50.0,46.6,29.48,South,183,7.0,9.0,88,0.00,,---,0.00,VWS V14.01,2013-09-30 07:21:00,
2013-09-30 00:26:00,50.1,46.7,29.48,South,177,7.0,13.0,88,0.00,,---,0.00,VWS V14.01,2013-09-30 07:26:00,
2013-09-30 00:30:00,50.1,46.7,29.48,SSE,155,4.0,13.0,88,0.00,,---,0.00,VWS V14.01,2013-09-30 07:30:00,
2013-09-30 00:31:00,50.1,46.7,29.48,WSW,245,4.0,6.0,88,0.00,,---,0.00,VWS V14.01,2013-09-30 07:31:00,
2013-09-30 00:36:00,50.1,46.4,29.48,SSW,210,6.0,11.0,87,0.00,,---,0.00,VWS V14.01,2013-09-30 07:36:00,
2013-09-30 00:41:00,50.2,46.5,29.48,SSW,212,5.0,12.0,87,0.00,,---,0.00,VWS V14.01,2013-09-30 07:41:00,
2013-09-30 00:46:00,50.4,46.4,29.48,SSW,212,6.0,12.0,86,0.00,,---,0.00,VWS V14.01,2013-09-30 07:46:00,
2013-09-30 00:51:00,50.4,46.4,29.48,SSW,198,3.0,12.0,86,0.00,,---,0.00,VWS V14.01,2013-09-30 07:51:00,
2013-09-30 00:56:00,50.4,46.4,29.48,West,260,6.0,12.0,86,0.00,,---,0.00,VWS V14.01,2013-09-30 07:56:00,
2013-09-30 01:00:00,50.4,46.1,29.48,SSW,207,6.0,12.0,85,0.00,,---,0.00,VWS V14.01,2013-09-30 08:00:00,
2013-09-30 01:01:00,50.4,46.1,29.48,SSW,196,12.0,12.0,85,0.00,,---,0.00,VWS V14.01,2013-09-30 08:01:00,
2013-09-30 01:06:00,50.6,46.0,29.48,SW,217,8.0,12.0,84,0.00,,---,0.00,VWS V14.01,2013-09-30 08:06:00,
2013-09-30 01:11:00,50.7,45.4,29.48,SSW,200,4.0,15.0,82,0.00,,---,0.00,VWS V14.01,2013-09-30 08:11:00,
2013-09-30 01:16:00,50.8,45.5,29.49,SW,226,5.0,15.0,82,0.00,,---,0.00,VWS V14.01,2013-09-30 08:16:00,
2013-09-30 01:21:00,50.7,45.7,29.49,SW,233,3.0,15.0,83,0.01,,---,0.01,VWS V14.01,2013-09-30 08:21:00,
2013-09-30 01:26:00,50.3,46.3,29.50,SSW,212,2.0,15.0,86,0.02,,---,0.02,VWS V14.01,2013-09-30 08:26:00,
2013-09-30 01:30:00,49.7,46.0,29.50,SW,235,6.0,15.0,87,0.04,,---,0.04,VWS V14.01,2013-09-30 08:30:00,
2013-09-30 01:31:00,49.7,46.0,29.50,South,179,7.0,7.0,87,0.04,,---,0.04,VWS V14.01,2013-09-30 08:31:00,
2013-09-30 01:36:00,49.5,45.8,29.50,West,264,3.0,13.0,87,0.04,,---,0.04,VWS V14.01,2013-09-30 08:36:00,
2013-09-30 01:41:00,49.3,45.9,29.51,SW,221,4.0,13.0,88,0.04,,---,0.04,VWS V14.01,2013-09-30 08:41:00,
2013-09-30 01:46:00,49.1,46.0,29.51,SW,226,4.0,13.0,89,0.05,,---,0.05,VWS V14.01,2013-09-30 08:46:00,
2013-09-30 01:51:00,48.8,46.0,29.52,NE,43,5.0,13.0,90,0.07,,---,0.08,VWS V14.01,2013-09-30 08:51:00,
2013-09-30 01:56:00,48.6,46.1,29.52,SW,231,2.0,13.0,91,0.09,,---,0.09,VWS V14.01,2013-09-30 08:56:00,
2013-09-30 02:00:00,48.4,46.2,29.52,SW,231,3.0,13.0,92,0.10,,---,0.10,VWS V14.01,2013-09-30 09:00:00,
2013-09-30 02:01:00,48.4,46.2,29.52,WSW,257,0.0,3.0,92,0.10,,---,0.10,VWS V14.01,2013-09-30 09:01:00,
2013-09-30 02:06:00,48.3,46.1,29.52,WSW,238,2.0,5.0,92,0.10,,---,0.10,VWS V14.01,2013-09-30 09:06:00,
2013-09-30 02:11:00,48.1,45.9,29.53,SSE,165,2.0,5.0,92,0.11,,---,0.11,VWS V14.01,2013-09-30 09:11:00,
2013-09-30 02:16:00,48.0,46.1,29.53,SSW,197,1.0,5.0,93,0.12,,---,0.12,VWS V14.01,2013-09-30 09:16:00,
2013-09-30 02:21:00,47.9,46.0,29.52,WSW,253,0.0,5.0,93,0.12,,---,0.12,VWS V14.01,2013-09-30 09:21:00,
2013-09-30 02:26:00,47.8,45.9,29.53,SW,224,2.0,5.0,93,0.12,,---,0.12,VWS V14.01,2013-09-30 09:26:00,
2013-09-30 02:30:00,47.8,46.2,29.53,SW,215,2.0,5.0,94,0.13,,---,0.13,VWS V14.01,2013-09-30 09:30:00,
2013-09-30 02:31:00,47.8,46.2,29.53,SSW,203,2.0,2.0,94,0.09,,---,0.13,VWS V14.01,2013-09-30 09:31:00,
2013-09-30 02:36:00,47.7,46.1,29.54,South,177,3.0,5.0,94,0.10,,---,0.14,VWS V14.01,2013-09-30 09:36:00,
2013-09-30 02:41:00,47.8,46.2,29.54,SSW,200,4.0,8.0,94,0.12,,---,0.16,VWS V14.01,2013-09-30 09:41:00,
2013-09-30 02:46:00,47.9,46.3,29.54,SW,218,3.0,10.0,94,0.13,,---,0.17,VWS V14.01,2013-09-30 09:46:00,
2013-09-30 02:51:00,48.0,46.4,29.53,SW,236,3.0,10.0,94,0.14,,---,0.18,VWS V14.01,2013-09-30 09:51:00,
2013-09-30 02:56:00,48.1,46.5,29.53,WSW,256,5.0,10.0,94,0.14,,---,0.18,VWS V14.01,2013-09-30 09:56:00,
2013-09-30 03:00:00,48.2,46.6,29.53,SW,226,3.0,10.0,94,0.14,,---,0.18,VWS V14.01,2013-09-30 10:00:00,
2013-09-30 03:02:00,48.2,46.6,29.53,SW,229,5.0,6.0,94,0.08,,---,0.18,VWS V14.01,2013-09-30 10:02:00,
2013-09-30 03:07:00,48.2,46.6,29.53,SW,236,3.0,8.0,94,0.08,,---,0.18,VWS V14.01,2013-09-30 10:07:00,
2013-09-30 03:12:00,48.2,46.6,29.53,SW,222,4.0,11.0,94,0.08,,---,0.18,VWS V14.01,2013-09-30 10:12:00,
2013-09-30 03:17:00,48.2,46.6,29.53,SW,232,7.0,11.0,94,0.08,,---,0.18,VWS V14.01,2013-09-30 10:17:00,
2013-09-30 03:22:00,48.3,46.7,29.52,SSW,194,5.0,12.0,94,0.08,,---,0.18,VWS V14.01,2013-09-30 10:22:00,
2013-09-30 03:27:00,48.2,46.6,29.52,SW,225,3.0,12.0,94,0.08,,---,0.18,VWS V14.01,2013-09-30 10:27:00,
2013-09-30 03:30:00,48.2,46.6,29.52,SSW,212,4.0,12.0,94,0.08,,---,0.18,VWS V14.01,2013-09-30 10:30:00,
2013-09-30 03:32:00,48.2,46.6,29.53,WSW,245,4.0,6.0,94,0.05,,---,0.18,VWS V14.01,2013-09-30 10:32:00,
2013-09-30 03:37:00,48.2,46.6,29.54,SSW,208,2.0,11.0,94,0.06,,---,0.19,VWS V14.01,2013-09-30 10:37:00,
2013-09-30 03:42:00,48.3,46.7,29.54,SSW,212,8.0,19.0,94,0.10,,---,0.23,VWS V14.01,2013-09-30 10:42:00,
2013-09-30 03:47:00,48.3,46.7,29.54,SW,226,7.0,19.0,94,0.13,,---,0.26,VWS V14.01,2013-09-30 10:47:00,
2013-09-30 03:52:00,48.3,46.9,29.53,SSE,153,8.0,19.0,95,0.17,,---,0.30,VWS V14.01,2013-09-30 10:52:00,
2013-09-30 03:57:00,48.2,46.8,29.53,WNW,283,8.0,19.0,95,0.18,,---,0.31,VWS V14.01,2013-09-30 10:57:00,
2013-09-30 04:00:00,48.2,46.8,29.54,SSW,200,4.0,19.0,95,0.22,,---,0.35,VWS V14.01,2013-09-30 11:00:00,
2013-09-30 04:02:00,48.3,46.9,29.54,WSW,246,4.0,10.0,95,0.17,,---,0.35,VWS V14.01,2013-09-30 11:02:00,
2013-09-30 04:07:00,48.4,46.8,29.55,South,176,2.0,10.0,94,0.17,,---,0.35,VWS V14.01,2013-09-30 11:07:00,
2013-09-30 04:12:00,48.4,46.8,29.55,South,188,2.0,10.0,94,0.17,,---,0.35,VWS V14.01,2013-09-30 11:12:00,
2013-09-30 04:17:00,48.3,46.7,29.55,SSW,210,2.0,10.0,94,0.17,,---,0.35,VWS V14.01,2013-09-30 11:17:00,
2013-09-30 04:22:00,48.2,46.8,29.55,SSW,204,1.0,10.0,95,0.17,,---,0.35,VWS V14.01,2013-09-30 11:22:00,
2013-09-30 04:27:00,48.2,46.8,29.55,South,190,2.0,10.0,95,0.17,,---,0.35,VWS V14.01,2013-09-30 11:27:00,
2013-09-30 04:30:00,48.2,46.8,29.55,SW,218,3.0,10.0,95,0.17,,---,0.35,VWS V14.01,2013-09-30 11:30:00,
2013-09-30 04:32:00,48.2,46.8,29.55,SSW,194,5.0,7.0,95,0.17,,---,0.35,VWS V14.01,2013-09-30 11:32:00,
2013-09-30 04:37:00,48.3,46.9,29.55,SSW,210,6.0,10.0,95,0.18,,---,0.36,VWS V14.01,2013-09-30 11:37:00,
2013-09-30 04:42:00,48.5,47.1,29.55,SW,218,6.0,10.0,95,0.18,,---,0.36,VWS V14.01,2013-09-30 11:42:00,
2013-09-30 04:47:00,48.6,47.2,29.55,SE,136,1.0,10.0,95,0.20,,---,0.38,VWS V14.01,2013-09-30 11:47:00,
2013-09-30 04:52:00,48.6,47.2,29.55,WSW,240,0.0,10.0,95,0.20,,---,0.38,VWS V14.01,2013-09-30 11:52:00,
2013-09-30 04:57:00,48.6,47.0,29.54,South,191,2.0,10.0,94,0.20,,---,0.38,VWS V14.01,2013-09-30 11:57:00,
2013-09-30 05:00:00,48.7,47.0,29.53,SSW,210,5.0,10.0,94,0.20,,---,0.38,VWS V14.01,2013-09-30 12:00:00,
2013-09-30 05:02:00,48.7,47.0,29.53,SSW,205,4.0,8.0,94,0.03,,---,0.38,VWS V14.01,2013-09-30 12:02:00,
2013-09-30 05:07:00,48.8,47.2,29.54,SW,229,3.0,8.0,94,0.03,,---,0.38,VWS V14.01,2013-09-30 12:07:00,
2013-09-30 05:12:00,48.7,47.0,29.54,WSW,257,2.0,8.0,94,0.03,,---,0.38,VWS V14.01,2013-09-30 12:12:00,
2013-09-30 05:17:00,48.7,47.0,29.55,NW,311,0.0,8.0,94,0.03,,---,0.38,VWS V14.01,2013-09-30 12:17:00,
2013-09-30 05:22:00,48.7,47.0,29.55,WSW,239,0.0,8.0,94,0.05,,---,0.40,VWS V14.01,2013-09-30 12:22:00,
2013-09-30 05:27:00,48.8,47.2,29.55,SW,234,1.0,8.0,94,0.07,,---,0.42,VWS V14.01,2013-09-30 12:27:00,
2013-09-30 05:30:00,48.8,47.4,29.56,SSW,212,1.0,8.0,95,0.10,,---,0.45,VWS V14.01,2013-09-30 12:30:00,
2013-09-30 05:32:00,48.9,47.5,29.56,SW,231,2.0,2.0,95,0.11,,---,0.46,VWS V14.01,2013-09-30 12:32:00,
2013-09-30 05:37:00,48.9,47.5,29.56,West,269,1.0,5.0,95,0.17,,---,0.52,VWS V14.01,2013-09-30 12:37:00,
2013-09-30 05:42:00,48.9,47.5,29.55,SSW,212,2.0,6.0,95,0.19,,---,0.54,VWS V14.01,2013-09-30 12:42:00,
2013-09-30 05:47:00,49.0,47.6,29.55,SW,221,0.0,12.0,95,0.20,,---,0.55,VWS V14.01,2013-09-30 12:47:00,
2013-09-30 05:52:00,49.1,47.7,29.56,ESE,107,4.0,12.0,95,0.21,,---,0.56,VWS V14.01,2013-09-30 12:52:00,
2013-09-30 05:57:00,49.0,47.6,29.56,SE,134,5.0,12.0,95,0.22,,---,0.57,VWS V14.01,2013-09-30 12:57:00,
2013-09-30 06:00:00,49.0,47.6,29.56,SSE,166,5.0,12.0,95,0.23,,---,0.58,VWS V14.01,2013-09-30 13:00:00,
2013-09-30 06:02:00,49.0,47.6,29.56,SSW,195,4.0,7.0,95,0.20,,---,0.58,VWS V14.01,2013-09-30 13:02:00,
2013-09-30 06:07:00,49.1,47.7,29.56,SSW,207,6.0,11.0,95,0.21,,---,0.59,VWS V14.01,2013-09-30 13:07:00,
2013-09-30 06:12:00,49.1,47.7,29.56,WSW,245,1.0,13.0,95,0.22,,---,0.60,VWS V14.01,2013-09-30 13:12:00,
2013-09-30 06:17:00,49.1,47.5,29.56,SW,232,4.0,13.0,94,0.23,,---,0.61,VWS V14.01,2013-09-30 13:17:00,
2013-09-30 06:22:00,49.1,47.5,29.57,SW,224,4.0,13.0,94,0.24,,---,0.62,VWS V14.01,2013-09-30 13:22:00,
2013-09-30 06:27:00,48.9,47.2,29.57,SW,225,3.0,13.0,94,0.24,,---,0.62,VWS V14.01,2013-09-30 13:27:00,
2013-09-30 06:30:00,48.7,47.0,29.57,WSW,242,5.0,13.0,94,0.25,,---,0.63,VWS V14.01,2013-09-30 13:30:00,
2013-09-30 06:32:00,48.7,47.0,29.57,SW,218,3.0,6.0,94,0.19,,---,0.64,VWS V14.01,2013-09-30 13:32:00,
2013-09-30 06:37:00,48.5,46.9,29.57,SSW,195,0.0,6.0,94,0.19,,---,0.64,VWS V14.01,2013-09-30 13:37:00,
2013-09-30 06:42:00,48.6,47.0,29.58,SW,232,3.0,15.0,94,0.20,,---,0.65,VWS V14.01,2013-09-30 13:42:00,
2013-09-30 06:47:00,48.8,47.2,29.58,SSW,210,0.0,15.0,94,0.21,,---,0.66,VWS V14.01,2013-09-30 13:47:00,
2013-09-30 06:52:00,48.8,47.2,29.58,SW,216,1.0,15.0,94,0.21,,---,0.66,VWS V14.01,2013-09-30 13:52:00,
2013-09-30 06:57:00,48.9,47.5,29.58,South,170,1.0,15.0,95,0.22,,---,0.67,VWS V14.01,2013-09-30 13:57:00,
2013-09-30 07:00:00,49.0,47.6,29.58,SW,236,0.0,15.0,95,0.22,,---,0.67,VWS V14.01,2013-09-30 14:00:00,
2013-09-30 07:02:00,49.0,47.6,29.58,SW,235,0.0,0.0,95,0.09,,---,0.67,VWS V14.01,2013-09-30 14:02:00,
2013-09-30 07:07:00,49.0,47.6,29.58,WNW,300,2.0,5.0,95,0.09,,---,0.67,VWS V14.01,2013-09-30 14:07:00,
2013-09-30 07:12:00,49.1,47.7,29.60,WSW,256,1.0,5.0,95,0.10,,---,0.68,VWS V14.01,2013-09-30 14:12:00,
2013-09-30 07:17:00,49.1,47.7,29.61,NE,41,4.0,9.0,95,0.22,,---,0.80,VWS V14.01,2013-09-30 14:17:00,
2013-09-30 07:22:00,49.3,47.9,29.61,NW,319,0.0,17.0,95,0.32,,---,0.90,VWS V14.01,2013-09-30 14:22:00,
2013-09-30 07:27:00,49.4,48.0,29.60,SSE,164,1.0,17.0,95,0.34,,---,0.92,VWS V14.01,2013-09-30 14:27:00,
2013-09-30 07:30:00,49.4,48.0,29.60,SSW,200,1.0,17.0,95,0.36,,---,0.94,VWS V14.01,2013-09-30 14:30:00,
2013-09-30 07:32:00,49.3,47.9,29.60,SW,221,2.0,5.0,95,0.31,,---,0.94,VWS V14.01,2013-09-30 14:32:00,
2013-09-30 07:37:00,49.0,47.3,29.61,WSW,248,3.0,11.0,94,0.33,,---,0.96,VWS V14.01,2013-09-30 14:37:00,
2013-09-30 07:42:00,48.8,47.2,29.60,WSW,239,6.0,16.0,94,0.35,,---,0.98,VWS V14.01,2013-09-30 14:42:00,
2013-09-30 07:47:00,48.8,47.4,29.58,South,188,7.0,16.0,95,0.36,,---,0.99,VWS V14.01,2013-09-30 14:47:00,
2013-09-30 07:52:00,48.7,47.0,29.59,SW,229,7.0,16.0,94,0.37,,---,1.00,VWS V14.01,2013-09-30 14:52:00,
2013-09-30 07:57:00,48.6,47.0,29.60,South,188,4.0,16.0,94,0.37,,---,1.00,VWS V14.01,2013-09-30 14:57:00,
2013-09-30 08:00:00,48.6,47.0,29.61,SSW,212,2.0,16.0,94,0.37,,---,1.00,VWS V14.01,2013-09-30 15:00:00,
2013-09-30 08:02:00,48.6,47.0,29.61,SSW,197,2.0,7.0,94,0.33,,---,1.00,VWS V14.01,2013-09-30 15:02:00,
2013-09-30 08:07:00,48.6,47.0,29.61,SSW,204,2.0,14.0,94,0.33,,---,1.00,VWS V14.01,2013-09-30 15:07:00,
2013-09-30 08:12:00,48.7,47.0,29.62,SSE,159,2.0,14.0,94,0.33,,---,1.00,VWS V14.01,2013-09-30 15:12:00,
2013-09-30 08:17:00,48.8,47.2,29.63,SSW,205,3.0,14.0,94,0.33,,---,1.00,VWS V14.01,2013-09-30 15:17:00,
2013-09-30 08:22:00,49.0,47.3,29.63,SSW,200,8.0,14.0,94,0.33,,---,1.00,VWS V14.01,2013-09-30 15:22:00,
2013-09-30 08:27:00,49.3,47.7,29.62,SW,221,7.0,14.0,94,0.34,,---,1.01,VWS V14.01,2013-09-30 15:27:00,
2013-09-30 08:30:00,49.4,47.8,29.62,SW,226,4.0,14.0,94,0.34,,---,1.01,VWS V14.01,2013-09-30 15:30:00,
2013-09-30 08:32:00,49.4,47.8,29.62,SW,229,9.0,14.0,94,0.08,,---,1.02,VWS V14.01,2013-09-30 15:32:00,
2013-09-30 08:37:00,49.5,47.8,29.63,WSW,239,7.0,22.0,94,0.08,,---,1.02,VWS V14.01,2013-09-30 15:37:00,
2013-09-30 08:42:00,49.7,48.0,29.63,WSW,244,3.0,22.0,94,0.08,,---,1.02,VWS V14.01,2013-09-30 15:42:00,
2013-09-30 08:47:00,49.9,48.2,29.65,SSW,201,2.0,22.0,94,0.08,,---,1.02,VWS V14.01,2013-09-30 15:47:00,
2013-09-30 08:52:00,50.0,48.3,29.65,WSW,240,6.0,22.0,94,0.08,,---,1.02,VWS V14.01,2013-09-30 15:52:00,
2013-09-30 08:57:00,50.2,48.5,29.66,SW,217,5.0,22.0,94,0.08,,---,1.02,VWS V14.01,2013-09-30 15:57:00,
2013-09-30 09:00:00,50.3,48.4,29.66,SW,231,2.0,22.0,93,0.08,,---,1.02,VWS V14.01,2013-09-30 16:00:00,
2013-09-30 09:02:00,50.3,48.4,29.67,SW,222,3.0,5.0,93,0.02,,---,1.02,VWS V14.01,2013-09-30 16:02:00,
2013-09-30 09:07:00,50.4,48.5,29.67,SSW,200,1.0,6.0,93,0.03,,---,1.03,VWS V14.01,2013-09-30 16:07:00,
2013-09-30 09:12:00,50.3,48.4,29.67,WSW,245,0.0,6.0,93,0.03,,---,1.03,VWS V14.01,2013-09-30 16:12:00,
2013-09-30 09:17:00,50.3,48.6,29.68,SW,224,2.0,7.0,94,0.04,,---,1.04,VWS V14.01,2013-09-30 16:17:00,
2013-09-30 09:22:00,50.4,48.7,29.68,SW,226,4.0,7.0,94,0.04,,---,1.04,VWS V14.01,2013-09-30 16:22:00,
2013-09-30 09:27:00,50.6,48.9,29.68,SSW,198,5.0,12.0,94,0.04,,---,1.04,VWS V14.01,2013-09-30 16:27:00,
2013-09-30 09:30:00,50.8,49.4,29.68,SW,222,4.0,12.0,95,0.04,,---,1.04,VWS V14.01,2013-09-30 16:30:00,
2013-09-30 09:32:00,50.9,49.5,29.68,SSW,207,3.0,7.0,95,0.03,,---,1.04,VWS V14.01,2013-09-30 16:32:00,
2013-09-30 09:37:00,51.4,50.0,29.68,SW,218,1.0,9.0,95,0.03,,---,1.04,VWS V14.01,2013-09-30 16:37:00,
2013-09-30 09:42:00,51.9,50.5,29.68,South,172,5.0,10.0,95,0.03,,---,1.04,VWS V14.01,2013-09-30 16:42:00,
2013-09-30 09:47:00,52.5,50.8,29.69,SE,134,2.0,11.0,94,0.03,,---,1.04,VWS V14.01,2013-09-30 16:47:00,
2013-09-30 09:52:00,53.0,51.0,29.69,SW,235,6.0,12.0,93,0.03,,---,1.04,VWS V14.01,2013-09-30 16:52:00,
2013-09-30 09:57:00,53.0,50.7,29.69,SSW,193,3.0,12.0,92,0.05,,---,1.06,VWS V14.01,2013-09-30 16:57:00,
2013-09-30 10:00:00,52.7,50.5,29.69,SSW,202,2.0,12.0,92,0.09,,---,1.10,VWS V14.01,2013-09-30 17:00:00,
2013-09-30 10:02:00,52.7,50.5,29.69,SW,215,1.0,3.0,92,0.08,,---,1.10,VWS V14.01,2013-09-30 17:02:00,
2013-09-30 10:07:00,52.5,50.5,29.70,SW,232,1.0,3.0,93,0.08,,---,1.10,VWS V14.01,2013-09-30 17:07:00,
2013-09-30 10:12:00,53.0,51.3,29.70,SSW,212,2.0,11.0,94,0.08,,---,1.10,VWS V14.01,2013-09-30 17:12:00,
2013-09-30 10:17:00,53.5,51.8,29.70,SSE,160,1.0,11.0,94,0.08,,---,1.10,VWS V14.01,2013-09-30 17:17:00,
2013-09-30 10:22:00,53.9,51.9,29.71,SW,220,3.0,11.0,93,0.08,,---,1.10,VWS V14.01,2013-09-30 17:22:00,
2013-09-30 10:27:00,53.9,51.3,29.71,East,100,4.0,11.0,91,0.08,,---,1.10,VWS V14.01,2013-09-30 17:27:00,
2013-09-30 10:30:00,53.7,51.1,29.71,WSW,238,12.0,12.0,91,0.08,,---,1.10,VWS V14.01,2013-09-30 17:30:00,
2013-09-30 10:32:00,53.7,50.8,29.71,WSW,240,5.0,10.0,90,0.06,,---,1.10,VWS V14.01,2013-09-30 17:32:00,
2013-09-30 10:37:00,53.6,50.7,29.71,SW,215,3.0,11.0,90,0.06,,---,1.10,VWS V14.01,2013-09-30 17:37:00,
2013-09-30 10:42:00,53.5,50.3,29.72,SW,226,4.0,11.0,89,0.06,,---,1.10,VWS V14.01,2013-09-30 17:42:00,
2013-09-30 10:47:00,53.5,50.3,29.72,South,190,3.0,11.0,89,0.06,,---,1.10,VWS V14.01,2013-09-30 17:47:00,
2013-09-30 10:52:00,54.3,51.1,29.72,SW,224,4.0,12.0,89,0.06,,---,1.10,VWS V14.01,2013-09-30 17:52:00,
2013-09-30 10:57:00,54.6,51.1,29.72,SSW,212,4.0,12.0,88,0.06,,---,1.10,VWS V14.01,2013-09-30 17:57:00,
2013-09-30 11:00:00,54.9,51.4,29.73,SW,232,2.0,12.0,88,0.06,,---,1.10,VWS V14.01,2013-09-30 18:00:00,
2013-09-30 11:02:00,55.0,51.2,29.73,SW,219,5.0,7.0,87,0.00,,---,1.10,VWS V14.01,2013-09-30 18:02:00,
2013-09-30 11:07:00,55.3,51.2,29.73,WSW,239,7.0,15.0,86,0.00,,---,1.10,VWS V14.01,2013-09-30 18:07:00,
2013-09-30 11:12:00,55.2,50.8,29.73,SSW,200,4.0,15.0,85,0.00,,---,1.10,VWS V14.01,2013-09-30 18:12:00,
2013-09-30 11:17:00,55.0,50.9,29.73,SW,225,2.0,15.0,86,0.00,,---,1.10,VWS V14.01,2013-09-30 18:17:00,
2013-09-30 11:22:00,54.8,50.7,29.74,SSW,210,4.0,15.0,86,0.00,,---,1.10,VWS V14.01,2013-09-30 18:22:00,
2013-09-30 11:27:00,54.7,50.6,29.74,SSW,197,3.0,15.0,86,0.00,,---,1.10,VWS V14.01,2013-09-30 18:27:00,
2013-09-30 11:30:00,54.6,50.2,29.74,SW,226,3.0,15.0,85,0.00,,---,1.10,VWS V14.01,2013-09-30 18:30:00,
2013-09-30 11:32:00,54.6,50.5,29.74,SW,226,7.0,10.0,86,0.00,,---,1.10,VWS V14.01,2013-09-30 18:32:00,
2013-09-30 11:37:00,54.3,50.2,29.74,SW,236,6.0,14.0,86,0.01,,---,1.11,VWS V14.01,2013-09-30 18:37:00,
2013-09-30 11:42:00,53.6,49.5,29.74,SW,222,4.0,14.0,86,0.01,,---,1.11,VWS V14.01,2013-09-30 18:42:00,
2013-09-30 11:47:00,53.1,49.7,29.75,WSW,240,5.0,14.0,88,0.01,,---,1.11,VWS V14.01,2013-09-30 18:47:00,
2013-09-30 11:52:00,53.0,49.8,29.74,SW,229,3.0,14.0,89,0.01,,---,1.11,VWS V14.01,2013-09-30 18:52:00,
2013-09-30 11:57:00,52.9,49.5,29.75,South,186,5.0,18.0,88,0.02,,---,1.12,VWS V14.01,2013-09-30 18:57:00,
2013-09-30 12:00:00,53.1,49.3,29.75,South,191,10.0,18.0,87,0.02,,---,1.12,VWS V14.01,2013-09-30 19:00:00,
2013-09-30 12:02:00,53.2,49.7,29.75,SW,232,4.0,10.0,88,0.02,,---,1.12,VWS V14.01,2013-09-30 19:02:00,
2013-09-30 12:07:00,53.3,49.2,29.75,SW,224,11.0,16.0,86,0.02,,---,1.12,VWS V14.01,2013-09-30 19:07:00,
2013-09-30 12:12:00,53.6,49.8,29.75,SW,235,9.0,16.0,87,0.02,,---,1.12,VWS V14.01,2013-09-30 19:12:00,
2013-09-30 12:17:00,53.9,49.8,29.75,SW,221,3.0,17.0,86,0.02,,---,1.12,VWS V14.01,2013-09-30 19:17:00,
2013-09-30 12:22:00,54.5,49.8,29.75,SW,224,17.0,17.0,84,0.02,,---,1.12,VWS V14.01,2013-09-30 19:22:00,
2013-09-30 12:27:00,54.6,49.5,29.76,SSW,212,3.0,17.0,83,0.02,,---,1.12,VWS V14.01,2013-09-30 19:27:00,
2013-09-30 12:30:00,54.4,49.3,29.76,SW,215,7.0,17.0,83,0.02,,---,1.12,VWS V14.01,2013-09-30 19:30:00,
2013-09-30 12:32:00,54.3,49.6,29.76,SSW,194,5.0,12.0,84,0.02,,---,1.12,VWS V14.01,2013-09-30 19:32:00,
2013-09-30 12:37:00,54.2,49.8,29.76,South,173,4.0,18.0,85,0.02,,---,1.12,VWS V14.01,2013-09-30 19:37:00,
2013-09-30 12:42:00,54.4,50.3,29.77,West,276,3.0,18.0,86,0.02,,---,1.12,VWS V14.01,2013-09-30 19:42:00,
2013-09-30 12:47:00,54.9,50.5,29.77,WSW,248,11.0,18.0,85,0.02,,---,1.12,VWS V14.01,2013-09-30 19:47:00,
2013-09-30 12:52:00,55.7,51.3,29.77,SW,214,5.0,18.0,85,0.02,,---,1.12,VWS V14.01,2013-09-30 19:52:00,
2013-09-30 12:57:00,56.4,51.0,29.77,WSW,238,11.0,19.0,82,0.02,,---,1.12,VWS V14.01,2013-09-30 19:57:00,
2013-09-30 13:00:00,56.7,50.9,29.77,SW,222,5.0,19.0,81,0.02,,---,1.12,VWS V14.01,2013-09-30 20:00:00,
2013-09-30 13:02:00,56.8,51.4,29.77,WSW,256,7.0,10.0,82,0.00,,---,1.12,VWS V14.01,2013-09-30 20:02:00,
2013-09-30 13:07:00,57.0,49.9,29.77,SW,217,6.0,20.0,77,0.00,,---,1.12,VWS V14.01,2013-09-30 20:07:00,
2013-09-30 13:12:00,56.8,50.4,29.77,SW,226,8.0,20.0,79,0.00,,---,1.12,VWS V14.01,2013-09-30 20:12:00,
2013-09-30 13:17:00,57.0,50.9,29.77,South,180,5.0,20.0,80,0.00,,---,1.12,VWS V14.01,2013-09-30 20:17:00,
2013-09-30 13:22:00,56.9,50.5,29.77,SW,218,8.0,20.0,79,0.00,,---,1.12,VWS V14.01,2013-09-30 20:22:00,
2013-09-30 13:27:00,56.5,50.1,29.78,SW,222,4.0,20.0,79,0.00,,---,1.12,VWS V14.01,2013-09-30 20:27:00,
2013-09-30 13:30:00,56.2,50.1,29.79,SW,215,6.0,20.0,80,0.00,,---,1.12,VWS V14.01,2013-09-30 20:30:00,
2013-09-30 13:32:00,56.1,50.0,29.80,West,281,4.0,6.0,80,0.00,,---,1.12,VWS V14.01,2013-09-30 20:32:00,
2013-09-30 13:37:00,53.9,47.5,29.79,WSW,250,7.0,15.0,79,0.01,,---,1.13,VWS V14.01,2013-09-30 20:37:00,
2013-09-30 13:42:00,51.3,46.6,29.79,ESE,110,5.0,19.0,84,0.03,,---,1.15,VWS V14.01,2013-09-30 20:42:00,
2013-09-30 13:47:00,50.2,46.8,29.80,West,266,2.0,19.0,88,0.05,,---,1.17,VWS V14.01,2013-09-30 20:47:00,
2013-09-30 13:52:00,49.7,46.9,29.80,South,181,1.0,19.0,90,0.05,,---,1.17,VWS V14.01,2013-09-30 20:52:00,
2013-09-30 13:57:00,49.7,47.5,29.80,WNW,283,1.0,19.0,92,0.06,,---,1.18,VWS V14.01,2013-09-30 20:57:00,
2013-09-30 14:00:00,49.9,48.0,29.80,SW,235,0.0,19.0,93,0.06,,---,1.18,VWS V14.01,2013-09-30 21:00:00,
2013-09-30 14:02:00,50.0,48.1,29.80,SSW,210,1.0,3.0,93,0.06,,---,1.18,VWS V14.01,2013-09-30 21:02:00,
2013-09-30 14:07:00,50.6,48.9,29.80,West,264,2.0,6.0,94,0.06,,---,1.18,VWS V14.01,2013-09-30 21:07:00,
2013-09-30 14:12:00,51.4,49.7,29.81,West,261,0.0,6.0,94,0.06,,---,1.18,VWS V14.01,2013-09-30 21:12:00,
2013-09-30 14:17:00,52.6,51.2,29.81,SW,226,1.0,6.0,95,0.06,,---,1.18,VWS V14.01,2013-09-30 21:17:00,
2013-09-30 14:22:00,54.0,52.6,29.81,SSW,207,1.0,6.0,95,0.06,,---,1.18,VWS V14.01,2013-09-30 21:22:00,
2013-09-30 14:27:00,55.0,52.1,29.81,SW,219,2.0,7.0,90,0.07,,---,1.19,VWS V14.01,2013-09-30 21:27:00,
2013-09-30 14:30:00,55.1,51.3,29.81,SSW,193,4.0,12.0,87,0.07,,---,1.19,VWS V14.01,2013-09-30 21:30:00,
2013-09-30 14:32:00,55.1,51.3,29.81,SSW,200,6.0,11.0,87,0.07,,---,1.19,VWS V14.01,2013-09-30 21:32:00,
2013-09-30 14:37:00,54.9,50.8,29.81,South,191,4.0,11.0,86,0.07,,---,1.19,VWS V14.01,2013-09-30 21:37:00,
2013-09-30 14:42:00,55.2,51.1,29.81,SW,226,3.0,12.0,86,0.07,,---,1.19,VWS V14.01,2013-09-30 21:42:00,
2013-09-30 14:47:00,55.1,50.7,29.81,WSW,240,3.0,12.0,85,0.07,,---,1.19,VWS V14.01,2013-09-30 21:47:00,
2013-09-30 14:52:00,55.0,50.3,29.81,SW,218,3.0,12.0,84,0.07,,---,1.19,VWS V14.01,2013-09-30 21:52:00,
2013-09-30 14:57:00,54.8,50.1,29.81,SW,215,5.0,13.0,84,0.07,,---,1.19,VWS V14.01,2013-09-30 21:57:00,
2013-09-30 15:00:00,55.3,50.6,29.81,SE,142,5.0,13.0,84,0.07,,---,1.19,VWS V14.01,2013-09-30 22:00:00,
2013-09-30 15:02:00,55.5,50.8,29.81,SW,229,4.0,13.0,84,0.01,,---,1.19,VWS V14.01,2013-09-30 22:02:00,
2013-09-30 15:07:00,56.1,50.7,29.81,SW,232,13.0,15.0,82,0.01,,---,1.19,VWS V14.01,2013-09-30 22:07:00,
2013-09-30 15:12:00,56.0,49.9,29.81,SW,228,5.0,16.0,80,0.01,,---,1.19,VWS V14.01,2013-09-30 22:12:00,
2013-09-30 15:17:00,55.8,50.4,29.81,SW,218,2.0,16.0,82,0.01,,---,1.19,VWS V14.01,2013-09-30 22:17:00,
2013-09-30 15:22:00,55.3,49.6,29.81,SSW,193,6.0,16.0,81,0.01,,---,1.19,VWS V14.01,2013-09-30 22:22:00,
2013-09-30 15:27:00,54.8,49.7,29.82,WSW,244,12.0,19.0,83,0.01,,---,1.19,VWS V14.01,2013-09-30 22:27:00,
2013-09-30 15:30:00,54.3,49.3,29.82,SW,221,5.0,19.0,83,0.01,,---,1.19,VWS V14.01,2013-09-30 22:30:00,
2013-09-30 15:32:00,54.2,49.2,29.82,SSW,212,4.0,10.0,83,0.00,,---,1.19,VWS V14.01,2013-09-30 22:32:00,
2013-09-30 15:37:00,54.2,49.8,29.83,SW,226,3.0,15.0,85,0.00,,---,1.19,VWS V14.01,2013-09-30 22:37:00,
2013-09-30 15:42:00,54.8,49.7,29.83,SW,229,9.0,15.0,83,0.00,,---,1.19,VWS V14.01,2013-09-30 22:42:00,
2013-09-30 15:47:00,55.2,50.1,29.83,SSW,197,16.0,16.0,83,0.00,,---,1.19,VWS V14.01,2013-09-30 22:47:00,
2013-09-30 15:52:00,55.2,49.5,29.83,SSW,204,7.0,16.0,81,0.00,,---,1.19,VWS V14.01,2013-09-30 22:52:00,
2013-09-30 15:57:00,55.4,49.3,29.83,South,172,5.0,16.0,80,0.00,,---,1.19,VWS V14.01,2013-09-30 22:57:00,
2013-09-30 16:00:00,55.5,49.4,29.83,SSE,163,19.0,19.0,80,0.00,,---,1.19,VWS V14.01,2013-09-30 23:00:00,
2013-09-30 16:02:00,55.5,49.1,29.83,SW,226,7.0,14.0,79,0.00,,---,1.19,VWS V14.01,2013-09-30 23:02:00,
2013-09-30 16:07:00,55.5,48.8,29.83,SW,226,6.0,14.0,78,0.00,,---,1.19,VWS V14.01,2013-09-30 23:07:00,
2013-09-30 16:12:00,55.5,49.1,29.83,SW,226,8.0,14.0,79,0.00,,---,1.19,VWS V14.01,2013-09-30 23:12:00,
2013-09-30 16:17:00,55.4,48.7,29.83,SW,229,5.0,16.0,78,0.00,,---,1.19,VWS V14.01,2013-09-30 23:17:00,
2013-09-30 16:22:00,55.7,48.6,29.83,SW,218,6.0,20.0,77,0.00,,---,1.19,VWS V14.01,2013-09-30 23:22:00,
2013-09-30 16:27:00,55.5,48.8,29.83,SW,215,5.0,20.0,78,0.00,,---,1.19,VWS V14.01,2013-09-30 23:27:00,
2013-09-30 16:30:00,55.3,48.6,29.83,SW,232,7.0,20.0,78,0.00,,---,1.19,VWS V14.01,2013-09-30 23:30:00,
2013-09-30 16:32:00,55.2,48.5,29.83,SW,225,4.0,17.0,78,0.00,,---,1.19,VWS V14.01,2013-09-30 23:32:00,
2013-09-30 16:37:00,55.1,48.0,29.84,West,262,3.0,17.0,77,0.00,,---,1.19,VWS V14.01,2013-09-30 23:37:00,
2013-09-30 16:42:00,55.1,48.7,29.84,SSW,212,4.0,17.0,79,0.00,,---,1.19,VWS V14.01,2013-09-30 23:42:00,
2013-09-30 16:47:00,54.8,48.1,29.84,South,188,5.0,17.0,78,0.00,,---,1.19,VWS V14.01,2013-09-30 23:47:00,
2013-09-30 16:52:00,54.1,48.1,29.85,SW,231,3.0,17.0,80,0.00,,---,1.19,VWS V14.01,2013-09-30 23:52:00,
2013-09-30 16:57:00,53.4,48.0,29.85,WSW,248,13.0,17.0,82,0.00,,---,1.19,VWS V14.01,2013-09-30 23:57:00,
2013-09-30 17:00:00,52.9,48.2,29.85,South,188,6.0,17.0,84,0.01,,---,1.20,VWS V14.01,2013-10-01 00:00:00,
2013-09-30 17:02:00,52.8,47.8,29.85,SSE,166,4.0,13.0,83,0.01,,---,1.20,VWS V14.01,2013-10-01 00:02:00,
2013-09-30 17:07:00,52.4,48.3,29.85,SW,219,4.0,13.0,86,0.01,,---,1.20,VWS V14.01,2013-10-01 00:07:00,
2013-09-30 17:12:00,52.0,48.3,29.85,South,174,3.0,13.0,87,0.01,,---,1.20,VWS V14.01,2013-10-01 00:12:00,
2013-09-30 17:17:00,51.7,48.3,29.85,SSW,210,3.0,13.0,88,0.02,,---,1.21,VWS V14.01,2013-10-01 00:17:00,
2013-09-30 17:22:00,51.6,48.2,29.85,WSW,248,4.0,13.0,88,0.02,,---,1.21,VWS V14.01,2013-10-01 00:22:00,
2013-09-30 17:27:00,51.7,47.7,29.86,SW,232,7.0,13.0,86,0.02,,---,1.21,VWS V14.01,2013-10-01 00:27:00,
2013-09-30 17:30:00,51.8,47.4,29.86,SSE,158,4.0,13.0,85,0.02,,---,1.21,VWS V14.01,2013-10-01 00:30:00,
2013-09-30 17:32:00,51.8,47.4,29.86,SSW,205,5.0,6.0,85,0.02,,---,1.21,VWS V14.01,2013-10-01 00:32:00,
2013-09-30 17:37:00,52.3,47.6,29.86,SSW,198,2.0,11.0,84,0.02,,---,1.21,VWS V14.01,2013-10-01 00:37:00,
2013-09-30 17:42:00,52.4,47.4,29.86,South,184,6.0,12.0,83,0.02,,---,1.21,VWS V14.01,2013-10-01 00:42:00,
2013-09-30 17:47:00,52.4,47.1,29.87,SSW,207,4.0,14.0,82,0.02,,---,1.21,VWS V14.01,2013-10-01 00:47:00,
2013-09-30 17:52:00,52.4,47.4,29.87,SW,225,3.0,14.0,83,0.02,,---,1.21,VWS V14.01,2013-10-01 00:52:00,
2013-09-30 17:57:00,52.4,47.4,29.87,SW,222,7.0,14.0,83,0.02,,---,1.21,VWS V14.01,2013-10-01 00:57:00,
2013-09-30 18:00:00,52.4,47.1,29.87,South,176,7.0,14.0,82,0.02,,---,1.21,VWS V14.01,2013-10-01 01:00:00,
2013-09-30 18:02:00,52.4,47.1,29.87,SW,233,5.0,8.0,82,0.01,,---,1.21,VWS V14.01,2013-10-01 01:02:00,
2013-09-30 18:07:00,52.4,47.1,29.87,SSE,166,5.0,11.0,82,0.01,,---,1.21,VWS V14.01,2013-10-01 01:07:00,
2013-09-30 18:12:00,52.4,47.4,29.87,WSW,242,8.0,13.0,83,0.01,,---,1.21,VWS V14.01,2013-10-01 01:12:00,
2013-09-30 18:17:00,52.2,47.5,29.87,South,190,5.0,13.0,84,0.01,,---,1.21,VWS V14.01,2013-10-01 01:17:00,
2013-09-30 18:22:00,52.0,47.3,29.87,SSE,163,6.0,13.0,84,0.01,,---,1.21,VWS V14.01,2013-10-01 01:22:00,
2013-09-30 18:27:00,52.0,47.0,29.87,SE,134,9.0,13.0,83,0.01,,---,1.21,VWS V14.01,2013-10-01 01:27:00,
2013-09-30 18:30:00,52.1,46.8,29.87,SW,231,11.0,13.0,82,0.01,,---,1.21,VWS V14.01,2013-10-01 01:30:00,
2013-09-30 18:32:00,52.1,46.8,29.87,SW,235,10.0,15.0,82,0.00,,---,1.21,VWS V14.01,2013-10-01 01:32:00,
2013-09-30 18:37:00,52.2,47.2,29.86,SW,226,5.0,15.0,83,0.00,,---,1.21,VWS V14.01,2013-10-01 01:37:00,
2013-09-30 18:42:00,52.0,47.0,29.86,South,190,7.0,15.0,83,0.00,,---,1.21,VWS V14.01,2013-10-01 01:42:00,
2013-09-30 18:47:00,51.8,46.8,29.87,SW,225,5.0,15.0,83,0.00,,---,1.21,VWS V14.01,2013-10-01 01:47:00,
2013-09-30 18:52:00,51.6,46.6,29.87,WSW,246,4.0,15.0,83,0.00,,---,1.21,VWS V14.01,2013-10-01 01:52:00,
2013-09-30 18:57:00,51.4,46.7,29.88,SSW,210,2.0,15.0,84,0.00,,---,1.21,VWS V14.01,2013-10-01 01:57:00,
2013-09-30 19:00:00,51.2,46.5,29.88,WSW,241,5.0,15.0,84,0.00,,---,1.21,VWS V14.01,2013-10-01 02:00:00,
2013-09-30 19:02:00,51.1,46.4,29.88,SW,225,3.0,8.0,84,0.00,,---,1.21,VWS V14.01,2013-10-01 02:02:00,
2013-09-30 19:07:00,50.9,45.9,29.88,South,176,7.0,10.0,83,0.00,,---,1.21,VWS V14.01,2013-10-01 02:07:00,
2013-09-30 19:12:00,50.7,46.0,29.88,South,179,5.0,10.0,84,0.00,,---,1.21,VWS V14.01,2013-10-01 02:12:00,
2013-09-30 19:17:00,50.4,45.8,29.88,SSW,212,3.0,11.0,84,0.00,,---,1.21,VWS V14.01,2013-10-01 02:17:00,
2013-09-30 19:22:00,50.1,45.5,29.89,West,281,1.0,11.0,84,0.00,,---,1.21,VWS V14.01,2013-10-01 02:22:00,
2013-09-30 19:27:00,49.9,45.6,29.89,SE,141,2.0,11.0,85,0.00,,---,1.21,VWS V14.01,2013-10-01 02:27:00,
2013-09-30 19:30:00,49.7,45.4,29.89,SSW,212,2.0,11.0,85,0.00,,---,1.21,VWS V14.01,2013-10-01 02:30:00,
2013-09-30 19:32:00,49.7,45.4,29.89,WSW,238,2.0,2.0,85,0.00,,---,1.21,VWS V14.01,2013-10-01 02:32:00,
2013-09-30 19:37:00,49.5,45.5,29.89,SW,229,0.0,3.0,86,0.00,,---,1.21,VWS V14.01,2013-10-01 02:37:00,
2013-09-30 19:42:00,49.3,45.3,29.90,SSW,212,1.0,3.0,86,0.00,,---,1.21,VWS V14.01,2013-10-01 02:42:00,
2013-09-30 19:47:00,49.3,45.6,29.90,SW,226,0.0,4.0,87,0.00,,---,1.21,VWS V14.01,2013-10-01 02:47:00,
2013-09-30 19:52:00,49.2,45.5,29.90,South,184,0.0,4.0,87,0.00,,---,1.21,VWS V14.01,2013-10-01 02:52:00,
2013-09-30 19:57:00,49.1,45.4,29.89,SSW,207,1.0,4.0,87,0.00,,---,1.21,VWS V14.01,2013-10-01 02:57:00,
2013-09-30 20:00:00,49.0,45.6,29.89,SSE,152,0.0,4.0,88,0.00,,---,1.21,VWS V14.01,2013-10-01 03:00:00,
2013-09-30 20:02:00,49.0,45.6,29.89,SSE,152,0.0,1.0,88,0.00,,---,1.21,VWS V14.01,2013-10-01 03:02:00,
2013-09-30 20:07:00,48.9,45.5,29.90,SE,143,0.0,1.0,88,0.00,,---,1.21,VWS V14.01,2013-10-01 03:07:00,
2013-09-30 20:12:00,48.7,45.6,29.90,South,191,1.0,2.0,89,0.00,,---,1.21,VWS V14.01,2013-10-01 03:12:00,
2013-09-30 20:17:00,48.7,45.6,29.90,SE,128,1.0,2.0,89,0.00,,---,1.21,VWS V14.01,2013-10-01 03:17:00,
2013-09-30 20:22:00,48.7,45.6,29.91,SE,127,0.0,3.0,89,0.00,,---,1.21,VWS V14.01,2013-10-01 03:22:00,
2013-09-30 20:27:00,48.7,45.9,29.90,SSW,201,0.0,3.0,90,0.00,,---,1.21,VWS V14.01,2013-10-01 03:27:00,
2013-09-30 20:30:00,48.7,45.9,29.90,SSW,197,2.0,3.0,90,0.00,,---,1.21,VWS V14.01,2013-10-01 03:30:00,
2013-09-30 20:32:00,48.7,45.9,29.90,SSW,200,0.0,2.0,90,0.00,,---,1.21,VWS V14.01,2013-10-01 03:32:00,
2013-09-30 20:37:00,48.7,45.9,29.91,SW,233,0.0,2.0,90,0.00,,---,1.21,VWS V14.01,2013-10-01 03:37:00,
2013-09-30 20:42:00,48.8,46.0,29.91,West,264,2.0,3.0,90,0.00,,---,1.21,VWS V14.01,2013-10-01 03:42:00,
2013-09-30 20:47:00,49.0,46.2,29.91,West,281,4.0,5.0,90,0.00,,---,1.21,VWS V14.01,2013-10-01 03:47:00,
2013-09-30 20:52:00,49.1,46.3,29.91,WSW,248,0.0,6.0,90,0.00,,---,1.21,VWS V14.01,2013-10-01 03:52:00,
2013-09-30 20:57:00,49.1,46.6,29.92,SW,221,3.0,6.0,91,0.00,,---,1.21,VWS V14.01,2013-10-01 03:57:00,
2013-09-30 21:00:00,48.9,46.4,29.92,SW,226,2.0,8.0,91,0.05,,---,1.26,VWS V14.01,2013-10-01 04:00:00,
2013-09-30 21:01:00,48.9,46.4,29.92,WSW,257,3.0,8.0,91,0.05,,---,1.26,VWS V14.01,2013-10-01 04:01:00,
2013-09-30 21:06:00,48.0,44.9,29.92,East,79,4.0,10.0,89,0.07,,---,1.28,VWS V14.01,2013-10-01 04:06:00,
2013-09-30 21:11:00,47.5,44.7,29.91,WSW,238,8.0,12.0,90,0.08,,---,1.29,VWS V14.01,2013-10-01 04:11:00,
2013-09-30 21:16:00,47.6,45.1,29.91,SW,225,5.0,17.0,91,0.10,,---,1.31,VWS V14.01,2013-10-01 04:16:00,
2013-09-30 21:21:00,47.6,45.1,29.92,WSW,242,8.0,17.0,91,0.10,,---,1.31,VWS V14.01,2013-10-01 04:21:00,
2013-09-30 21:26:00,47.6,45.1,29.92,South,179,3.0,17.0,91,0.10,,---,1.31,VWS V14.01,2013-10-01 04:26:00,
2013-09-30 21:30:00,47.6,45.4,29.92,SW,215,3.0,17.0,92,0.10,,---,1.31,VWS V14.01,2013-10-01 04:30:00,
2013-09-30 21:31:00,47.6,45.4,29.92,South,188,3.0,3.0,92,0.10,,---,1.31,VWS V14.01,2013-10-01 04:31:00,
2013-09-30 21:36:00,47.7,45.5,29.92,SE,139,3.0,6.0,92,0.10,,---,1.31,VWS V14.01,2013-10-01 04:36:00,
2013-09-30 21:41:00,47.7,45.8,29.92,SSW,212,1.0,8.0,93,0.10,,---,1.31,VWS V14.01,2013-10-01 04:41:00,
2013-09-30 21:46:00,47.8,45.9,29.92,SW,220,6.0,9.0,93,0.11,,---,1.32,VWS V14.01,2013-10-01 04:46:00,
2013-09-30 21:51:00,47.9,46.0,29.92,South,179,2.0,10.0,93,0.11,,---,1.32,VWS V14.01,2013-10-01 04:51:00,
2013-09-30 21:56:00,47.9,46.0,29.92,SW,218,4.0,10.0,93,0.11,,---,1.32,VWS V14.01,2013-10-01 04:56:00,
2013-09-30 22:00:00,47.9,46.0,29.93,South,186,1.0,10.0,93,0.11,,---,1.32,VWS V14.01,2013-10-01 05:00:00,
2013-09-30 22:01:00,47.9,46.0,29.93,SW,225,2.0,2.0,93,0.06,,---,1.32,VWS V14.01,2013-10-01 05:01:00,
2013-09-30 22:06:00,47.9,46.0,29.93,SW,226,2.0,5.0,93,0.06,,---,1.32,VWS V14.01,2013-10-01 05:06:00,
2013-09-30 22:11:00,47.9,46.0,29.93,SW,232,1.0,6.0,93,0.06,,---,1.32,VWS V14.01,2013-10-01 05:11:00,
2013-09-30 22:16:00,48.0,46.1,29.93,SSW,207,2.0,6.0,93,0.06,,---,1.32,VWS V14.01,2013-10-01 05:16:00,
2013-09-30 22:21:00,47.9,45.7,29.94,SW,218,0.0,6.0,92,0.06,,---,1.32,VWS V14.01,2013-10-01 05:21:00,
2013-09-30 22:26:00,47.9,45.7,29.94,SW,235,2.0,7.0,92,0.06,,---,1.32,VWS V14.01,2013-10-01 05:26:00,
2013-09-30 22:30:00,47.9,45.7,29.94,SE,139,3.0,7.0,92,0.06,,---,1.32,VWS V14.01,2013-10-01 05:30:00,
2013-09-30 22:31:00,47.9,45.7,29.94,SW,220,2.0,3.0,92,0.01,,---,1.32,VWS V14.01,2013-10-01 05:31:00,
2013-09-30 22:36:00,47.9,45.7,29.94,SSW,210,3.0,6.0,92,0.01,,---,1.32,VWS V14.01,2013-10-01 05:36:00,
2013-09-30 22:41:00,47.9,45.4,29.94,South,190,4.0,9.0,91,0.01,,---,1.32,VWS V14.01,2013-10-01 05:41:00,
2013-09-30 22:46:00,48.0,45.5,29.94,SSW,203,2.0,9.0,91,0.01,,---,1.32,VWS V14.01,2013-10-01 05:46:00,
2013-09-30 22:51:00,47.9,45.4,29.94,SE,143,4.0,9.0,91,0.01,,---,1.32,VWS V14.01,2013-10-01 05:51:00,
2013-09-30 22:56:00,47.8,45.3,29.94,SSW,195,2.0,9.0,91,0.01,,---,1.32,VWS V14.01,2013-10-01 05:56:00,
2013-09-30 23:00:00,47.8,45.6,29.94,SSW,201,4.0,12.0,92,0.01,,---,1.32,VWS V14.01,2013-10-01 06:00:00,
2013-09-30 23:01:00,47.8,45.6,29.94,SSW,203,3.0,3.0,92,0.00,,---,1.32,VWS V14.01,2013-10-01 06:01:00,
2013-09-30 23:06:00,47.7,45.5,29.94,SSW,205,6.0,11.0,92,0.00,,---,1.32,VWS V14.01,2013-10-01 06:06:00,
2013-09-30 23:11:00,47.6,45.4,29.94,SSW,210,3.0,11.0,92,0.00,,---,1.32,VWS V14.01,2013-10-01 06:11:00,
2013-09-30 23:16:00,47.6,45.4,29.94,South,184,7.0,11.0,92,0.00,,---,1.32,VWS V14.01,2013-10-01 06:16:00,
2013-09-30 23:21:00,47.7,45.5,29.94,SW,222,3.0,11.0,92,0.00,,---,1.32,VWS V14.01,2013-10-01 06:21:00,
2013-09-30 23:26:00,47.8,45.3,29.94,SSW,196,4.0,11.0,91,0.00,,---,1.32,VWS V14.01,2013-10-01 06:26:00,
2013-09-30 23:30:00,48.0,45.5,29.93,SW,224,2.0,11.0,91,0.00,,---,1.32,VWS V14.01,2013-10-01 06:30:00,
2013-09-30 23:31:00,48.0,45.5,29.93,WSW,240,4.0,5.0,91,0.00,,---,1.32,VWS V14.01,2013-10-01 06:31:00,
2013-09-30 23:36:00,48.0,45.5,29.93,South,191,1.0,7.0,91,0.00,,---,1.32,VWS V14.01,2013-10-01 06:36:00,
2013-09-30 23:41:00,48.1,45.6,29.93,SSW,203,1.0,8.0,91,0.00,,---,1.32,VWS V14.01,2013-10-01 06:41:00,
2013-09-30 23:46:00,48.0,45.2,29.94,SE,139,1.0,8.0,90,0.00,,---,1.32,VWS V14.01,2013-10-01 06:46:00,
2013-09-30 23:51:00,48.1,45.6,29.94,West,259,0.0,8.0,91,0.00,,---,1.32,VWS V14.01,2013-10-01 06:51:00,
2013-09-30 23:56:00,48.0,45.5,29.94,NW,319,1.0,8.0,91,0.01,,---,1.33,VWS V14.01,2013-10-01 06:56:00,